#timestamp,LO_Frequency,Hit,StdDev 
1515384015.2,286046985.7,Y
1515384035.0,286046993.0,P
1515384035.9,286046993.0,N
1515384055.7,286046997.0,N
1515384075.6,286046994.3,N
1515384095.4,286046998.2,N
1515384115.3,286047001.9,N
1515384135.1,286046995.5,N
1515384155.8,286047001.0,N
1515384175.7,286047001.2,N
1515384195.5,286046999.4,N
1515384215.4,286047002.4,N
1515384235.2,286047002.4,N
1515384255.0,286047006.4,N
1515384255.9,286047006.4,N
1515384275.8,286047001.2,N
1515384295.6,286046999.8,N
1515384315.4,286047002.1,N
1515384335.3,286046998.8,N
1515384355.1,286046999.2,N
1515384375.9,286047002.6,N
1515384395.7,286047000.5,N
1515384415.5,286046995.6,N
1515384435.4,286046991.9,N
1515384455.2,286046997.5,N
1515384475.1,286046996.2,N
1515384476.0,286046996.2,N
1515384495.8,286046996.2,N
1515384515.6,286046995.7,N
1515384535.5,286046996.1,N
1515384555.3,286046998.9,N
1515384575.1,286046999.1,N
1515384595.9,286046999.2,N
1515384615.7,286047001.7,N
1515384635.6,286046999.3,N
1515384655.4,286047001.8,N
1515384675.2,286047004.8,N
1515384695.1,286047005.2,N
1515384696.0,286047005.2,N
1515384715.8,286047005.0,N
1515384735.7,286047005.1,N
1515384755.5,286047005.4,N
1515384775.3,286047004.3,N
1515384795.2,286047001.5,N
1515384815.0,286047002.2,N
1515384815.9,286047002.2,N
1515384835.7,286047000.2,N
1515384855.6,286047005.9,N
1515384875.4,286047008.8,N
1515384895.3,286047005.5,N
1515384915.1,286047001.8,N
1515384916.0,286047001.8,N
1515384935.8,286047000.2,N
1515384955.7,286047001.6,N
1515384975.5,286047006.9,N
1515384995.4,286047001.4,N
1515385015.2,286047002.2,N
1515385035.0,286047000.4,N
1515385035.9,286047000.4,N
1515385055.8,286046998.3,N
1515385075.6,286046997.0,N
1515385095.4,286046998.5,N
1515385115.3,286047002.0,N
1515385135.1,286047005.4,N
1515385155.9,286047001.3,N
1515385175.7,286047001.4,N
1515385195.5,286047003.2,N
1515385215.4,286047004.7,N
1515385235.2,286047005.2,N
1515385255.0,286047007.0,N
1515385256.0,286047007.0,N
1515385275.8,286047007.4,N
1515385295.6,286047004.2,N
1515385345.5,286047001.4,E
1515385355.4,286047001.3,N
1515385375.3,286047002.0,P
1515385395.1,286047003.2,P
1515385396.0,286047003.2,Y
1515385415.8,286047003.6,P
1515385435.7,286047000.8,N
1515385455.5,286047001.1,N
1515385475.4,286047004.0,Y
1515385495.2,286047007.6,P
1515385515.0,286047006.8,N
1515385515.9,286047006.8,N
1515385535.8,286047004.4,N
1515385555.6,286047001.8,N
1515385575.4,286046998.1,N
1515385595.3,286047000.5,N
1515385615.1,286047001.2,N
1515385635.9,286046995.6,N
1515385655.7,286046999.3,N
1515385675.5,286046993.4,N
1515385695.4,286046997.9,N
1515385715.2,286046995.6,N
1515385735.0,286046997.6,N
1515385736.0,286046997.6,N
1515385755.8,286046995.9,N
1515385775.6,286047002.2,N
1515385795.5,286046999.6,N
1515385815.3,286046992.9,N
1515385835.1,286046993.9,N
1515385855.9,286046990.9,N
1515385875.7,286046989.6,N
1515385895.6,286046987.6,N
1515385915.4,286046991.2,N
1515385935.2,286046990.1,N
1515385955.1,286046992.7,N
1515385956.0,286046992.7,N
1515385975.8,286046993.1,N
1515385995.7,286046996.0,N
1515386015.5,286046994.0,N
1515386035.3,286046992.5,N
1515386055.2,286046990.9,N
1515386075.9,286046988.8,N
1515386095.7,286046991.6,N
1515386115.6,286046993.5,N
1515386135.4,286046990.4,N
1515386155.3,286046989.5,N
1515386175.1,286046994.8,N
1515386176.0,286046994.8,N
1515386195.8,286046997.2,N
1515386215.7,286046996.5,N
1515386235.5,286046999.6,N
1515386255.3,286046987.8,Y
1515386275.2,286046989.7,P
1515386295.0,286046992.6,P
1515386295.9,286046992.6,P
1515386315.8,286046990.3,Y
1515386335.6,286047002.4,P
1515386355.4,286047000.9,N
1515386375.3,286047003.6,N
1515386395.1,286047004.1,N
1515386415.9,286047000.5,N
1515386435.7,286047003.6,N
1515386455.5,286047002.2,N
1515386475.4,286047003.2,N
1515386495.2,286047006.2,N
1515386515.0,286047010.8,Y
1515386515.9,286047010.8,P
1515386535.8,286047008.8,N
1515386555.6,286047010.6,N
1515386575.5,286047004.8,N
1515386595.3,286047005.4,N
1515386615.1,286047003.5,N
1515386635.9,286047006.1,N
1515386655.7,286047010.3,Y
1515386675.6,286047000.2,P
1515386695.4,286046995.5,N
1515386715.2,286046996.1,N
1515386735.1,286046997.2,N
1515386736.0,286046997.2,N
1515386755.8,286046995.4,N
1515386775.6,286046997.9,N
1515386795.5,286047000.6,N
1515386815.3,286047004.3,N
1515386835.2,286047000.1,N
1515386855.0,286047001.6,N
1515386855.9,286047001.6,N
1515386875.7,286046998.6,N
1515386895.6,286046999.5,N
1515386915.4,286046991.7,N
1515386935.3,286046995.8,N
1515386955.1,286046995.8,N
1515386956.0,286046995.8,N
1515386975.8,286046997.1,N
1515386995.7,286046997.5,N
1515387015.5,286046998.0,N
1515387035.4,286046999.1,N
1515387055.2,286047000.7,N
1515387075.0,286046998.8,N
1515387075.9,286046998.8,N
1515387095.8,286046998.6,N
1515387115.6,286047005.6,N
1515387135.4,286047006.4,N
1515387155.3,286047000.2,N
1515387175.1,286047001.2,N
1515387195.9,286047001.0,N
1515387215.7,286047002.8,N
1515387235.5,286047001.7,N
1515387255.4,286047003.8,N
1515387275.2,286046999.7,N
1515387295.1,286046996.4,N
1515387296.0,286046996.4,N
1515387315.8,286046996.1,N
1515387335.6,286046998.4,N
1515387355.5,286046998.5,N
1515387375.3,286046999.1,N
1515387395.2,286046997.6,N
1515387415.9,286046998.8,N
1515387435.7,286046998.7,N
1515387455.6,286047001.1,N
1515387475.4,286047001.4,N
1515387495.2,286047005.7,N
1515387515.1,286047004.9,N
1515387516.0,286047004.9,N
1515387535.8,286047008.5,N
1515387555.7,286047008.4,N
1515387575.5,286047003.5,N
1515387595.3,286047001.9,N
